TimeEST,TemperatureF,Dew PointF,Humidity,Sea Level PressureIn,VisibilityMPH,Wind Direction,Wind SpeedMPH,Gust SpeedMPH,PrecipitationIn,Events,Conditions,WindDirDegrees,DateUTC
12:54 AM,23.0,10.0,58,29.90,10.0,WNW,10.4,18.4,N/A,,Clear,300,2013-01-22 05:54:00
1:54 AM,21.9,7.0,53,29.93,10.0,West,10.4,18.4,N/A,,Clear,280,2013-01-22 06:54:00
2:54 AM,19.9,1.0,44,29.95,10.0,WNW,19.6,28.8,N/A,,Clear,290,2013-01-22 07:54:00
3:54 AM,19.0,-0.0,43,29.98,10.0,West,15.0,25.3,N/A,,Clear,280,2013-01-22 08:54:00
4:54 AM,18.0,-0.0,45,30.01,10.0,WNW,12.7,21.9,N/A,,Clear,290,2013-01-22 09:54:00
5:54 AM,17.1,-0.0,47,30.04,10.0,WNW,9.2,18.4,N/A,,Clear,290,2013-01-22 10:54:00
6:54 AM,16.0,-0.0,49,30.07,10.0,WNW,9.2,24.2,N/A,,Clear,290,2013-01-22 11:54:00
7:54 AM,16.0,-0.0,49,30.09,10.0,WNW,13.8,19.6,N/A,,Clear,290,2013-01-22 12:54:00
8:54 AM,17.1,-0.9,45,30.11,10.0,WNW,16.1,23.0,N/A,,Clear,300,2013-01-22 13:54:00
9:54 AM,18.0,-0.9,44,30.14,10.0,WNW,12.7,19.6,N/A,,Mostly Cloudy,290,2013-01-22 14:54:00
10:54 AM,17.1,-2.9,41,30.15,10.0,West,12.7,21.9,N/A,,Mostly Cloudy,280,2013-01-22 15:54:00
11:54 AM,19.0,-4.0,36,30.12,-9999.0,WNW,17.3,25.3,N/A,,Scattered Clouds,300,2013-01-22 16:54:00
12:54 PM,18.0,-5.1,36,30.11,10.0,WNW,16.1,27.6,N/A,,Mostly Cloudy,290,2013-01-22 17:54:00
1:54 PM,19.9,-4.0,35,30.11,10.0,West,10.4,27.6,N/A,,Mostly Cloudy,280,2013-01-22 18:54:00
2:54 PM,19.9,-4.0,35,30.12,10.0,West,12.7,26.5,N/A,,Mostly Cloudy,280,2013-01-22 19:54:00
3:54 PM,18.0,-5.1,36,30.14,10.0,NW,13.8,24.2,N/A,,Mostly Cloudy,310,2013-01-22 20:54:00
4:54 PM,17.1,-5.1,37,30.17,10.0,West,13.8,23.0,N/A,,Overcast,270,2013-01-22 21:54:00
5:54 PM,16.0,-4.0,41,30.19,10.0,WNW,9.2,-,N/A,,Clear,290,2013-01-22 22:54:00
6:54 PM,15.1,-4.0,43,30.22,10.0,West,6.9,18.4,N/A,,Clear,280,2013-01-22 23:54:00
7:54 PM,15.1,-2.9,45,30.23,10.0,WNW,11.5,18.4,N/A,,Clear,300,2013-01-23 00:54:00
8:54 PM,14.0,-2.9,47,30.25,10.0,WNW,6.9,20.7,N/A,,Clear,290,2013-01-23 01:54:00
9:54 PM,12.9,-2.9,49,30.27,10.0,West,10.4,19.6,N/A,,Clear,280,2013-01-23 02:54:00
10:54 PM,12.0,-0.9,56,30.27,10.0,WNW,8.1,-,N/A,,Clear,300,2013-01-23 03:54:00
11:54 PM,10.9,-2.0,56,30.26,10.0,WNW,5.8,-,N/A,,Clear,290,2013-01-23 04:54:00